Вернуться в каталог

KUIPER-00662

АктивенСвязьLEO
NORAD 69791·PAYLOAD·🇺🇸 United States

Запущен Jul 2, 2026 с Cape Canaveral Space Force Station

Loading…

Ближайшие Пролёты (ближайшие 24 часа)

TLE

СвежийSource: CelesTrak SupGP

Эпоха: Sep 14, 2026, 22:35 UTC

1 69791C 26151AE  26257.94141204 -.00003538  00000+0 -46346-3 0  2577
2 69791  51.9004 261.2701 0000174 123.0282 124.1568 14.79900289    19

Отслеживайте KUIPER-00662 в реальном времени с AllMySat

Download on the App Store